Regional Weather Roundup
Issued by NWS Raleigh/Durham, NC

Current Version | Previous Version | Text Only | Print | Product List | Glossary On
Versions: 1 2 3 4 5 6 7 8 9 10 11 12 13 14 15 16 17 18 19 20 21 22 23 24 25 26 27 28 29 30 31 32 33 34 35 36 37 38 39 40 41 42 43 44 45 46 47 48 49 50
000
ASUS42 KRAH 231410
RWRRAH
NORTH CAROLINA WEATHER ROUNDUP
NATIONAL WEATHER SERVICE RALEIGH NC
1000 AM EDT SAT SEP 23 2017

NOTE: "FAIR" INDICATES FEW OR NO CLOUDS BELOW 12,000 FEET WITH NO
SIGNIFICANT WEATHER AND/OR OBSTRUCTIONS TO VISIBILITY.

NCZ001-053-055-056-065-067-231500-
WESTERN NORTH CAROLINA

CITY           SKY/WX    TMP DP  RH WIND       PRES   REMARKS
ASHEVILLE      MOSUNNY   69  65  86 NW6       30.17R
JEFFERSON      SUNNY     66  63  90 CALM      30.20S
MORGANTON      SUNNY     71  65  81 CALM      30.15R
HICKORY        SUNNY     73  68  84 NW5       30.11R
RUTHERFORDTON  SUNNY     76  67  74 N3        30.11R
MOUNT AIRY     SUNNY     75  67  77 CALM      30.14R
BOONE          SUNNY     64  64 100 CALM      30.21R
$$

NCZ021-022-025-041-071-084-088-231500-
CENTRAL NORTH CAROLINA

CITY           SKY/WX    TMP DP  RH WIND       PRES   REMARKS
CHARLOTTE      MOSUNNY   79  68  69 VRB3      30.09R
GREENSBORO     MOSUNNY   76  68  76 NE3       30.10R
WINSTON-SALEM  SUNNY     76  66  71 NE5       30.11R
RALEIGH-DURHAM MOSUNNY   76  68  76 N5        30.08S
FORT BRAGG     SUNNY     79  67  67 NE3       30.05R
FAYETTEVILLE   SUNNY     79  69  71 NE3       30.05R
BURLINGTON     SUNNY     77  67  71 CALM      30.09R
LAURINBURG     SUNNY     78  67  68 N3        30.07R
$$

NCZ011-015-027-028-043-044-047-080-103-231500-
NORTHEASTERN NORTH CAROLINA

CITY           SKY/WX    TMP DP  RH WIND       PRES   REMARKS
ROCKY MT-WILSO SUNNY     77  68  73 N5        30.07R
GREENVILLE     SUNNY     72  70  94 N6        30.08R
WASHINGTON     MOSUNNY   74  69  81 N6        30.06S
ELIZABETH CITY SUNNY     78  69  73 N6        30.05R
MANTEO         SUNNY     75  67  76 N8        30.05S
CAPE HATTERAS  PTSUNNY   80  70  71 CALM      30.04R
$$

NCZ078-087-090-091-093-098-101-231500-
SOUTHEASTERN NORTH CAROLINA

CITY           SKY/WX    TMP DP  RH WIND       PRES   REMARKS
LUMBERTON      SUNNY     78  70  76 NE3       30.05R
GOLDSBORO      SUNNY     77  73  87 NE5       30.05R
KINSTON        SUNNY     77  70  78 N5        30.07R
KENANSVILLE    SUNNY     75  70  83 N3        30.06R
NEW BERN       MOSUNNY   76  70  82 N6        30.06R
CHERRY POINT   MOSUNNY   78  71  79 NE12      30.05R
BEAUFORT       SUNNY     80  71  74 N8        30.04R
JACKSONVILLE   SUNNY     78  69  73 NE6       30.04R
WILMINGTON     MOSUNNY   79  71  76 CALM      30.04S
$$




USA.gov is the U.S. government's official web portal to all federal, state and local government web resources and services.